Regional Weather Roundup
Issued by NWS Sioux Falls, SD

Home | Current Version | Previous Version | Graphics & Text | Print | Product List | Glossary Off
Versions: 1 2 3 4 5 6 7 8 9 10 11 12 13 14 15 16 17 18 19 20 21 22 23 24 25 26 27 28 29 30 31 32 33 34 35 36 37 38 39 40 41 42 43 44 45 46 47 48 49 50

000
ASUS43 KFSD 211010
RWRFSD

WEATHER ROUNDUP FOR SE SOUTH DAKOTA/SW MINNESOTA/NW IOWA
NATIONAL WEATHER SERVICE SIOUX FALLS SD
400 AM CST TUE FEB 21 2017

NOTE: "FAIR" INDICATES FEW OR NO CLOUDS BELOW 12,000 FEET WITH NO
SIGNIFICANT WEATHER AND OR OBSTRUCTIONS TO VISIBILITY.


SDZ038>040-050-052>070-211100-
SOUTHEAST SOUTH DAKOTA

CITY           SKY/WX    TMP DP  RH WIND       PRES   REMARKS
BROOKINGS      CLEAR     35  34  96 S7        29.84F WCI  29
CHAMBERLAIN    CLEAR     43  32  65 SW8       29.79S
HURON          CLEAR     37  33  85 S10       29.79F
MADISON        FAIR      32  32 100 S12       29.85S WCI  23
MITCHELL       CLEAR     35  31  85 S10       29.83F WCI  27
SIOUX FALLS    CLEAR     29  29 100 SW5       29.88S FOG     WCI  24
WINNER         FAIR      46  28  49 SW16      29.80S
YANKTON        CLEAR     34  30  86 SE3       29.89S
$$

MNZ071-072-080-081-089-090-097-098-211100-
SOUTHWEST MINNESOTA

CITY           SKY/WX    TMP DP  RH WIND       PRES   REMARKS
FAIRMONT       CLEAR     32  31  96 S5        29.90F FOG     WCI  27
JACKSON        CLEAR     34  34 100 S8        29.89F FOG     WCI  27
LUVERNE        FOG       28  28 100 CALM      29.88F VSB 1/4
MARSHALL       CLEAR     38  30  73 SW8       29.85S
MONTEVIDEO     CLEAR     36  36 100 W6        29.86R
PIPESTONE      CLEAR     36  32  87 S5        29.86S
REDWOOD FALLS  CLEAR     34  31  88 S5        29.86S WCI  30
TRACY          CLEAR     38  34  84 SW9       29.87R
WINDOM         CLEAR     34  34 100 S5        29.87S FOG     WCI  30
WORTHINGTON    CLEAR     35  35 100 SW9       29.88F WCI  28
$$

IAZ001>003-012>014-020>022-031-032-NEZ013-014-SDZ071-211100-
NORTHWEST IOWA

CITY           SKY/WX    TMP DP  RH WIND       PRES   REMARKS
CHEROKEE       FOG       28  28 100 CALM      29.92S VSB 3/4
DENISON        FOG       32  32 100 CALM      29.92S VSB<1/4
ESTHERVILLE    CLEAR     34  34 100 SW7       29.89F WCI  28
LE MARS        PTCLDY    32  32 100 CALM      29.93F
SHELDON        FOG       34  34 100 S7        29.89F VSB 1/2 WCI  28
SIOUX CITY     CLEAR     31  30  96 E7        29.93F WCI  24
SPENCER        CLEAR     33  32  96 S6        29.90F WCI  28
STORM LAKE     CLEAR     36  36 100 SW6       29.92F FOG
$$

ABBREVIATIONS USED IN REMARKS
   TC - TEMPERATURE IN CELSIUS
  WCI - WIND CHILL INDEX
   HX - HEAT INDEX
  VSB - VISIBILITY





USA.gov is the U.S. government's official web portal to all federal, state and local government web resources and services.